Content
SEND FEEDBACK

Daily
Averages
Monthly
Summary
United States of America

OBSIDIAN, IDAHO


Home > North America > United States > Idaho
Elevation: 6910 feet     Latitude: 44 03N     Longitude: 114 48W

WEATHER
 
SELECT A DAY
Number of Records: 140,127;   Date Range: 3/13/98 - 9/29/14
 
SHARE

PRINT THIS DATA

[ ← Previous Day ]
WEATHER ALMANAC - FEBRUARY 13, 2013
[ Next Day → ]
[ °C ]   °F
Weather ElementAverageHighLow
Temperature29.9 °F37 °F (1:51 pm)21.9 °F (7:51 am)
Dewpoint18.3 °F23 °F (9:51 am)15.1 °F (2:51 pm)
Humidity64 %92 % (7:51 am)41 % (2:51 pm)
Barometer30.17 in30.22 in (1:51 am)30.10 in (2:51 pm)
Wind Speed5.1 mph11.5 mph (2:51 pm)
Wind Gust18.4 mph (2:51 pm)
Weather ElementAverage
Wind DirectionSSW (199.6 °)

Weather ElementTotal
Precipitation0.01 in
Heating Degree Days35.6 (Base 65)
Averaged from 23 records on February 13, 2013
WEATHER CONDITIONS BREAKOUT
WIND DIRECTION BREAKOUT
WEATHER BY HOUR - FEBRUARY 13, 2013
[ °C ]   °F
Local TimeTemperatureDewpointHumidityBarometerVisibilityWind DirectionWind SpeedGust SpeedPrecipitationEventsConditions
1:51 AM25.0 °F19.0 °F78 %30.22 inEast (90°)3.5 mph
2:51 AM25.0 °F18.0 °F75 %30.21 inESE (110°)4.6 mph
3:51 AM24.1 °F18.0 °F77 %30.20 inCalm
4:51 AM25.0 °F18.0 °F75 %30.19 inCalm
5:51 AM24.1 °F19.0 °F81 %30.20 inCalm
6:51 AM24.1 °F19.9 °F84 %30.19 inSSE (160°)4.6 mph
7:51 AM21.9 °F19.9 °F92 %30.22 inCalm0.01 in
8:51 AM25.0 °F21.0 °F85 %30.21 inCalm
9:51 AM32.0 °F23.0 °F69 %30.17 inCalm
10:51 AM35.1 °F21.0 °F57 %30.17 inNorth (350°)5.8 mph
11:51 AM35.1 °F19.0 °F52 %30.16 inNNW (340°)9.2 mph
12:51 PM36.0 °F18.0 °F48 %30.14 inNW (310°)9.2 mph
1:51 PM37.0 °F16.0 °F42 %30.12 inVariable6.9 mph
2:51 PM37.0 °F15.1 °F41 %30.10 inNW (320°)11.5 mph18.4 mph
3:51 PM37.0 °F15.1 °F41 %30.11 inNNW (340°)9.2 mph
4:51 PM34.0 °F16.0 °F48 %30.12 inNNW (330°)8.1 mph
5:51 PM32.0 °F17.1 °F54 %30.14 inNW (310°)9.2 mph
6:51 PM32.0 °F17.1 °F54 %30.15 inNNW (330°)8.1 mph
7:51 PM30.9 °F17.1 °F57 %30.17 inNW (320°)6.9 mph18.4 mph
8:51 PM28.9 °F21.0 °F72 %30.17 inNorth (350°)5.8 mph
9:51 PM28.0 °F19.9 °F72 %30.14 inNW (310°)3.5 mph
10:51 PM30.0 °F17.1 °F59 %30.14 inNW (310°)5.8 mph16.1 mph
11:51 PM28.9 °F16.0 °F58 %30.16 inNW (310°)5.8 mph
Hourly data recorded from KSNT, located miles away from Obsidian, Idaho







STORIES FROM OUR PARTNERS